RH
15 22 23 46 62 71 86 100 98 77 93 100 97 100 81 67 91 100 86 39 34 23 18 14 15 20 23 23 20 20 24 27 29 27 54 38 33 26 34 40 38 36 40 37
18 21 21 52 61 76 97 100 100 88 99 100 94 96 61 81 99 100 40 35 30 21 19 20 21 20 22 24 24 27 24 18 21 24 35 30 28 26 35 34 35 33 35 32
16 19 26 53 61 72 100 95 97 90 100 99 98 76 61 91 100 67 37 34 28 19 20 22 25 22 25 30 26 24 20 19 22 24 37 33 31 32 30 32 32 33 35 30
16 17 34 53 57 65 96 92 100 97 98 93 98 54 78 99 99 42 38 38 33 28 28 28 30 27 29 28 28 26 24 23 22 23 32 34 30 30 28 28 30 30 33 31
17 18 39 53 54 63 100 94 100 99 100 90 94 50 85 99 75 42 42 44 37 29 31 30 44 36 33 38 38 33 32 28 24 24 30 40 31 29 28 26 26 28 29 31
16 20 37 46 51 66 94 96 100 99 100 98 94 56 68 96 68 49 44 40 36 30 29 26 21 18 18 21 23 23 24 28 25 24 24 33 43 42 31 30 32 34 31 38
17 23 37 37 48 68 85 99 100 100 100 99 91 59 72 85 91 76 62 51 49 52 38 32 27 25 24 22 21 21 20 19 19 20 21 24 36 42 47 42 36 37 45 38
16 18 32 36 50 76 91 95 95 100 100 100 92 63 75 85 92 96 80 60 50 45 36 34 30 21 21 22 22 23 22 22 22 22 21 22 23 27 34 40 44 43 47 45
17 22 30 37 59 91 78 93 94 100 100 100 94 72 90 79 83 99 100 89 80 69 57 45 43 37 30 24 21 20 20 21 20 21 22 22 21 23 24 26 28 29 31 33
22 21 32 41 64 80 81 86 94 100 100 99 100 71 85 96 83 98 99 100 100 100 92 66 51 44 36 34 28 22 19 19 21 21 21 21 21 22 22 24 24 23 25 26
26 32 42 46 61 68 85 86 100 100 100 100 100 79 69 100 94 98 96 92 94 97 94 90 65 56 51 40 37 36 30 25 21 20 21 20 20 20 20 21 21 22 23 23
26 31 46 54 56 66 79 86 100 100 100 100 100 89 69 85 100 100 100 93 96 99 97 95 89 76 58 49 50 49 50 45 44 44 31 25 24 25 30 31 30 27 30 35
26 31 49 52 58 66 80 91 100 100 100 100 100 100 86 83 98 98 100 93 82 93 93 93 90 91 84 79 61 50 42 41 42 44 39 39 53 55 47 44 47 43 42 48
32 49 54 53 55 64 81 96 100 100 100 100 100 98 100 85 77 90 100 96 100 100 100 93 93 87 89 82 73 72 69 68 66 60 56 50 56 55 52 55 66 67 61 63
36 53 55 58 53 62 85 98 100 100 100 100 100 100 100 94 76 63 100 95 100 100 100 100 100 100 100 100 100 97 94 84 82 84 91 92 85 85 88 92 94 100 88 82
39 54 58 54 53 62 81 100 98 100 100 100 100 99 98 100 93 74 68 98 99 100 100 100 100 100 99 100 90 93 100 100 100 100 100 97 81 80 85 88 94 98 100 100
39 53 59 52 53 59 71 94 100 100 100 100 100 100 100 100 100 87 75 70 89 92 99 100 100 100 96 90 78 71 66 73 72 72 76 87 88 86 90 90 85 80 75 65
37 61 64 52 53 57 66 88 92 98 96 98 100 100 100 100 91 91 81 74 67 71 77 81 90 93 93 95 82 70 62 61 67 74 70 68 70 66 58 56 55 54 51 47
46 59 67 57 54 64 64 72 80 92 92 100 100 100 93 100 82 69 66 66 69 66 64 69 77 85 86 89 82 76 65 60 66 75 80 74 79 77 64 56 50 49 51 48
50 51 52 53 52 67 62 57 75 86 94 100 100 94 86 100 86 62 64 59 53 60 64 61 62 72 80 81 74 69 62 64 65 72 78 79 71 72 68 67 67 69 68 70
43 41 46 62 63 63 68 52 65 82 100 100 100 100 92 99 98 83 60 64 62 64 67 53 67 98 89 74 76 69 64 63 68 74 74 90 97 90 85 81 81 82 77 75
42 55 67 59 52 57 65 55 57 78 100 100 100 100 94 100 97 92 80 62 57 58 67 59 78 99 76 72 72 72 69 67 68 77 98 94 91 87 85 81 80 80 75 72
46 46 43 45 40 55 67 64 66 82 100 100 100 100 97 93 86 86 77 72 70 67 67 68 88 84 69 59 58 60 60 67 79 74 80 74 78 79 81 80 81 76 79 94
36 42 44 32 42 53 79 93 79 72 92 99 95 89 82 89 90 79 75 93 92 90 88 81 64 62 63 63 64 69 69 66 66 72 76 76 80 86 87 86 89 99 100 100
23 32 43 47 45 60 78 85 72 65 76 85 80 83 86 81 86 96 89 98 96 100 100 95 73 72 80 75 67 60 64 69 69 69 73 83 85 82 85 94 100 100 100 100
15 22 34 41 43 57 74 88 75 64 64 64 70 77 83 87 87 100 100 100 100 100 100 90 78 66 64 67 68 66 69 74 78 82 83 85 88 95 100 100 100 100 97 90
11 20 34 43 48 63 75 84 76 59 53 54 56 65 84 89 88 97 99 100 94 94 96 96 96 95 95 99 100 100 100 96 94 97 97 96 100 100 99 100 100 99 96 94
Wind_Speed
46 53 60 66 62 57 55 49 44 39 31 29 28 32 26 26 30 34 32 20 11 3 17 30 41 66 77 80 80 85 93 94 96 92 85 79 70 69 69 68 66 66 64 55
50 55 63 66 61 57 54 49 44 33 31 26 25 24 21 23 24 27 16 5 4 15 24 33 49 69 73 72 73 80 88 94 86 78 75 71 69 67 66 64 63 64 65 59
52 57 64 66 61 57 54 49 42 31 27 23 22 17 16 17 19 14 2 10 15 23 30 37 54 57 61 65 70 77 79 78 74 71 72 70 69 68 67 68 66 66 63 59
52 60 66 65 61 57 52 45 38 32 23 21 17 14 10 12 9 4 14 18 20 26 35 43 47 50 53 58 64 71 74 73 71 68 66 68 69 68 67 64 68 63 66 63
52 60 67 65 61 56 51 42 35 29 21 19 13 13 11 4 6 14 20 23 23 26 34 46 49 47 51 55 60 68 72 74 74 71 69 69 69 69 65 63 62 62 63 63
54 63 69 64 61 57 52 41 35 28 21 18 14 15 13 9 16 20 22 23 22 21 23 28 37 43 45 50 58 68 72 73 73 72 71 69 65 64 63 64 63 63 62 68
55 64 69 64 58 57 51 43 37 27 22 20 18 18 14 16 20 22 22 23 22 19 22 24 26 32 36 40 46 56 65 69 71 70 68 63 65 65 65 64 64 63 64 68
56 61 64 61 61 57 51 45 40 31 25 21 21 22 18 20 22 22 22 22 23 22 22 22 22 26 32 35 36 43 54 63 66 66 67 68 69 67 66 65 67 67 68 68
56 63 66 66 63 56 52 45 37 33 26 25 24 27 23 22 25 25 23 24 22 20 19 20 21 21 21 25 32 35 40 52 62 66 66 69 68 67 67 66 69 69 69 71
60 63 66 69 65 60 53 47 40 36 29 28 25 30 28 24 27 25 28 26 24 21 20 21 21 20 22 22 25 29 35 39 44 53 60 66 68 69 68 69 71 70 71 72
63 65 66 67 67 61 55 48 42 37 32 31 27 34 32 30 27 26 29 30 28 25 24 24 24 24 24 23 24 26 27 29 34 38 43 49 57 63 65 66 67 67 69 69
65 67 68 69 65 61 56 48 44 39 34 34 27 37 36 34 32 28 26 29 30 29 27 24 23 24 24 24 24 24 25 28 29 27 31 34 36 38 40 42 45 47 46 45
66 69 71 71 68 62 57 51 47 42 36 34 31 34 42 39 36 35 31 27 28 27 25 28 28 26 26 26 26 27 28 29 30 29 30 31 32 35 37 39 40 42 43 45
71 72 73 72 69 65 59 53 49 44 38 35 35 30 41 46 42 38 36 35 28 27 24 23 24 23 22 23 25 27 28 29 31 33 34 35 38 40 40 40 41 44 45 46
72 73 74 72 69 66 61 55 50 46 40 37 36 35 29 48 48 45 40 38 37 35 32 31 29 27 24 21 20 19 19 20 22 25 27 31 34 35 36 38 38 37 36 36
74 77 76 74 70 69 63 57 51 47 43 38 37 35 36 31 51 51 49 44 41 40 36 36 34 34 32 28 24 25 27 27 28 27 27 29 30 31 33 35 37 38 41 43
75 78 77 76 72 71 66 58 55 51 47 42 38 35 33 32 38 59 55 51 49 45 41 40 39 36 35 33 31 31 31 33 32 33 32 34 35 36 39 41 44 47 49 50
74 79 79 77 73 71 68 64 60 54 49 43 38 37 34 31 35 52 62 59 55 52 50 47 44 42 38 38 40 39 38 36 38 38 39 41 42 45 48 49 51 53 54 53
76 78 79 78 75 74 71 67 60 54 49 43 41 40 35 29 31 42 51 57 58 56 53 52 48 45 44 49 51 48 45 44 44 42 41 43 46 50 51 53 54 51 49 48
79 80 78 76 74 75 73 68 62 55 49 47 44 40 35 30 29 36 44 49 52 53 55 55 51 49 50 52 56 54 50 43 43 44 48 51 49 48 49 48 44 39 38 38
78 79 79 77 79 78 76 69 63 56 52 51 48 43 40 34 30 32 37 46 49 53 55 53 49 51 54 51 50 51 47 45 45 45 43 42 41 33 30 31 31 30 31 33
75 79 83 85 83 82 78 71 63 57 56 53 51 47 43 40 35 31 30 36 43 47 51 46 50 59 55 52 51 51 46 45 43 38 33 30 25 25 26 29 31 34 36 38
77 82 85 89 85 81 76 71 67 63 63 64 62 56 51 46 41 36 32 28 28 35 42 47 57 58 51 47 46 45 44 37 31 29 30 30 29 30 31 34 37 39 41 46
79 81 82 84 84 81 78 76 77 74 72 71 66 59 54 49 45 39 36 33 32 30 34 43 43 38 36 34 31 31 34 34 33 33 33 33 34 36 39 42 44 48 52 55
73 77 80 82 81 85 85 83 81 79 76 73 68 61 57 54 46 44 42 41 39 40 42 42 40 38 37 37 38 37 37 37 38 39 39 41 42 44 46 49 53 57 60 63
69 71 74 79 80 86 87 85 85 84 81 76 71 65 60 57 53 51 49 47 48 50 49 46 44 43 42 42 42 43 43 44 45 46 47 47 49 51 55 58 62 65 67 70
56 66 73 76 81 87 88 88 87 86 82 77 73 70 66 64 60 59 58 58 57 53 51 50 50 49 49 50 51 52 52 53 53 54 55 56 58 61 64 66 69 71 74 76
Wind_Direction
212 207 204 202 205 209 216 221 229 241 255 262 278 288 286 293 310 321 314 321 330 194 151 150 156 163 167 169 170 175 175 179 185 182 185 189 192 195 198 203 205 207 213 213
205 202 202 200 201 207 213 220 226 238 248 258 272 286 283 299 320 320 309 336 88 149 148 150 164 167 169 170 174 178 184 185 183 184 188 190 193 198 203 207 210 213 218 220
202 200 198 198 200 204 209 218 222 234 237 255 271 270 276 311 329 311 116 117 116 141 144 153 166 168 170 175 180 183 187 187 186 187 190 193 196 200 205 209 213 218 223 225
200 199 196 196 197 199 205 213 219 230 226 248 263 247 275 317 322 136 135 131 127 135 146 152 166 172 176 180 185 187 189 191 191 193 196 199 201 205 209 212 218 221 227 231
198 198 195 194 196 198 203 206 215 218 221 238 247 234 250 290 140 139 141 140 148 156 161 163 168 177 182 185 188 191 193 196 196 196 201 203 206 208 212 217 223 227 233 238
196 197 195 192 194 196 200 198 207 209 214 227 226 219 225 185 135 138 145 146 147 144 156 172 181 183 189 193 194 195 197 198 201 202 203 206 209 215 217 220 226 231 235 240
195 197 195 191 189 195 197 196 203 203 209 219 216 208 200 176 145 142 147 152 150 153 154 160 174 187 191 196 200 202 203 205 206 207 209 211 215 218 222 226 232 236 241 244
194 197 195 189 187 190 194 194 202 201 204 212 207 205 188 182 161 159 160 158 156 155 156 153 160 176 188 195 197 203 209 211 214 215 216 217 220 222 225 229 234 239 244 247
193 193 193 187 186 190 191 194 196 197 200 207 204 202 187 187 172 173 168 165 163 163 164 160 162 168 177 186 194 199 204 213 217 220 222 225 226 229 231 235 238 242 246 249
192 192 190 186 185 188 191 196 196 197 199 203 204 202 192 190 180 180 183 180 178 177 181 181 177 173 178 181 190 199 202 204 211 219 225 229 231 233 236 238 241 244 248 252
190 189 188 188 187 188 190 194 193 195 199 200 203 201 198 187 185 181 191 192 194 193 194 192 189 189 187 184 184 187 194 205 212 215 219 223 229 235 239 242 245 248 250 254
189 189 186 188 190 189 189 191 192 195 199 199 202 200 201 194 188 181 189 196 198 203 204 203 204 205 203 202 202 202 201 197 195 204 212 217 220 223 228 232 236 238 240 242
189 189 187 188 190 189 190 191 192 195 199 199 199 202 204 202 196 194 193 193 196 195 203 208 211 216 217 218 218 219 218 217 219 219 220 217 222 227 230 232 237 240 244 250
188 189 188 189 189 189 190 191 193 195 199 202 202 201 208 210 208 198 197 194 191 191 194 197 195 195 204 207 214 220 223 227 230 234 233 233 235 239 243 246 248 252 255 258
188 189 190 191 191 190 190 192 194 196 200 206 207 204 205 212 214 207 201 199 192 194 198 198 198 197 199 200 204 207 215 220 227 230 232 234 237 241 244 245 246 246 253 258
190 190 191 193 193 192 190 192 195 198 201 208 211 210 209 215 216 214 209 204 202 202 202 205 208 210 210 209 212 217 218 220 225 228 233 239 243 245 247 249 252 255 258 260
192 192 194 195 195 194 191 193 198 199 201 208 213 214 216 222 223 214 214 211 211 212 211 210 211 214 218 223 231 234 237 235 237 241 243 246 249 253 256 258 259 261 262 262
194 194 196 196 197 197 195 197 199 200 201 205 212 215 218 226 221 214 214 215 218 220 221 219 218 221 226 234 238 240 244 248 249 245 248 252 256 259 261 262 262 261 263 266
195 196 198 197 198 197 198 200 200 200 201 204 213 216 215 225 227 214 216 217 220 223 223 225 225 228 233 240 242 243 248 249 245 246 251 257 262 266 267 266 267 271 275 274
197 199 200 199 200 200 202 201 200 201 202 207 214 216 214 220 225 219 218 219 221 223 223 225 227 233 239 242 245 250 252 247 249 255 257 260 267 268 266 269 272 273 270 269
200 201 201 201 203 202 203 203 201 199 203 211 215 214 213 215 218 222 220 223 226 228 230 231 232 235 238 239 244 249 253 254 253 252 257 262 257 258 258 262 265 267 269 274
201 200 202 205 206 203 204 202 203 202 206 213 217 215 212 213 212 212 218 221 222 225 232 233 238 240 242 244 246 249 250 252 253 252 242 244 247 252 258 264 269 272 275 279
202 203 204 205 206 204 203 203 203 205 209 214 216 214 212 211 211 209 209 211 216 219 225 230 236 239 240 239 240 241 244 240 231 233 239 246 253 260 264 268 272 276 280 282
205 205 206 207 205 204 205 206 207 208 211 215 215 214 214 212 214 212 210 210 213 211 217 223 227 228 229 229 229 225 229 236 241 245 250 254 259 263 267 271 275 278 279 281
214 211 207 208 207 206 207 209 210 211 213 216 217 216 217 217 214 217 218 218 218 219 221 224 225 227 228 232 236 238 241 244 248 251 255 259 262 266 271 275 277 279 282 285
218 216 213 211 209 208 209 210 213 214 215 217 218 219 219 222 221 222 221 223 225 227 228 230 233 236 238 239 242 244 248 250 254 257 261 265 269 272 274 276 278 281 284 287
223 220 216 216 214 212 213 214 216 217 219 220 221 221 222 223 224 226 227 227 228 231 234 236 238 241 243 245 246 249 251 255 258 261 264 267 269 271 274 277 279 281 284 287